Vorticity
3 2 1 1 5 2 17 10 20 27 24 27 17 15 11 6 2 8 16 20 14 15 15 13 5 9 10 8 7 6 12 5 12 17 -2 -1 14 28 5 10 7 2 7 5 3
6 3 4 6 12 3 9 18 12 25 25 16 12 13 13 2 2 14 16 23 15 14 21 11 5 9 9 9 7 10 3 11 5 17 4 -4 4 -2 33 -1 7 6 3 6 4
4 6 5 2 2 13 22 15 28 30 7 18 20 11 3 9 5 6 18 20 16 12 21 14 6 7 11 8 8 5 14 4 9 9 10 9 1 -3 -5 33 -4 4 10 7 5
6 5 4 12 3 5 13 17 33 13 17 21 9 0 11 16 19 11 16 17 12 11 12 16 13 5 9 11 7 10 10 7 9 11 10 6 7 11 23 22 -2 3 8 7 7
4 6 1 3 10 11 13 27 30 19 17 1 4 4 17 18 25 10 11 13 12 13 8 17 12 16 3 12 11 7 5 6 6 7 11 11 11 7 9 6 21 -2 7 10 8
3 3 6 6 -2 22 19 36 17 14 6 7 1 28 26 26 19 13 10 11 11 10 11 7 18 11 15 4 12 12 5 9 11 7 9 11 8 2 6 -0 35 2 4 11 11
6 6 2 4 19 21 18 21 17 8 8 8 30 19 11 14 14 19 19 11 10 9 9 9 8 15 13 9 4 12 7 2 -7 27 7 5 10 6 7 14 24 4 3 7 10
4 6 3 2 24 16 24 21 5 7 16 28 12 19 16 18 16 14 17 12 11 15 4 6 11 11 6 13 9 0 11 6 12 -5 20 8 9 16 -4 17 16 8 4 8 8
5 6 2 7 11 15 30 14 11 15 24 15 9 9 18 20 18 23 21 19 10 8 14 8 3 12 15 18 12 10 3 11 0 7 6 14 8 8 2 20 13 9 4 8 10
5 9 5 10 25 23 27 16 2 23 14 7 11 13 18 18 17 15 17 27 17 13 4 14 10 5 8 13 18 12 14 4 13 2 12 11 9 4 4 14 22 11 4 7 9
6 6 10 11 7 36 17 13 8 16 5 12 0 38 26 18 25 34 18 21 23 15 9 4 12 7 6 8 13 20 16 18 2 -1 6 12 5 7 13 5 17 7 9 2 6
6 7 4 10 24 28 18 7 25 17 9 3 31 14 29 26 20 22 26 19 27 19 16 8 5 13 9 -3 8 1 18 17 -3 14 2 10 10 12 -2 -7 20 14 9 1 13
7 8 2 15 36 25 9 10 23 5 10 31 13 21 17 22 22 18 17 20 35 31 26 15 10 11 10 3 1 8 15 16 7 34 12 27 21 -3 14 22 31 4 4 13 -1
6 4 11 16 44 19 12 9 15 5 7 8 17 19 23 23 20 20 14 12 21 37 26 20 13 9 7 7 6 1 2 25 3 -13 17 -26 19 11 15 7 9 17 -0 12 1
3 3 9 30 39 13 8 14 9 7 20 13 18 15 21 19 8 4 3 6 19 17 38 35 30 12 5 7 7 6 5 6 25 8 -11 -13 55 15 7 6 15 9 14 5 13
3 15 17 36 20 12 10 16 6 5 18 16 19 29 9 12 4 -2 4 23 -2 31 18 46 24 26 10 2 5 5 3 2 8 19 13 6 7 12 15 12 -4 14 14 11 21
8 14 24 36 19 12 9 10 6 9 11 9 35 25 5 6 2 4 35 22 11 21 38 32 35 34 11 9 4 6 2 9 3 5 18 10 -7 23 7 7 11 7 14 18 21
16 22 17 23 18 11 13 8 6 8 16 18 50 15 9 3 12 27 20 8 4 16 21 19 34 36 29 8 7 3 6 -5 17 2 18 6 26 17 17 16 -1 13 6 6 18
4 14 32 20 18 11 11 5 5 11 16 24 35 4 2 5 -18 -1 17 10 -6 27 16 -2 27 45 36 18 5 5 9 -0 12 77 -7 17 -7 17 9 16 20 3 12 8 16
13 19 34 20 12 11 11 5 5 12 19 21 34 13 1 -0 15 -1 26 26 -10 6 5 7 -4 23 61 23 18 9 1 7 -34 -6 12 15 19 1 21 6 12 17 10 11 8
12 26 24 26 9 11 11 6 6 11 20 22 25 14 12 4 4 0 4 -1 21 -0 20 18 3 32 63 16 -2 7 27 -1 -10 -48 -33 -28 51 -21 12 14 17 16 5 11 6
9 30 27 23 14 10 10 6 5 11 22 19 13 24 8 4 8 4 14 12 12 -4 4 10 -5 10 48 38 9 19 15 39 -15 -2 7 9 5 36 13 2 2 8 23 3 7
23 18 29 15 11 10 9 6 5 12 18 26 11 15 10 7 5 9 7 8 -1 9 31 15 21 2 43 48 -4 1 3 14 29 -23 18 33 17 13 -7 -1 18 13 27 26 3
22 20 27 19 12 10 9 7 7 10 18 21 22 10 25 12 4 9 9 9 8 -0 12 11 11 15 21 49 10 6 2 -6 50 27 -9 24 -1 7 17 24 -7 2 12 13 30
15 19 17 20 11 11 9 7 6 15 16 22 15 11 13 25 10 2 11 12 7 -6 10 8 -3 -1 0 60 -7 -2 -21 -7 -8 -1 29 25 25 10 22 21 9 12 0 25 22
16 23 29 21 11 11 8 8 6 13 19 21 16 11 10 20 9 7 11 6 16 18 2 7 9 32 14 28 53 -19 -12 -7 -5 -20 -5 -17 11 14 2 22 21 28 22 19 17
12 23 42 14 7 11 10 6 6 14 17 18 25 8 10 14 32 11 6 8 5 0 21 14 18 4 25 12 23 27 24 12 2 -18 23 21 1 -2 7 10 3 0 -0 4 13
Height
5748 5736 5728 5717 5706 5697 5688 5678 5668 5660 5652 5648 5646 5644 5645 5645 5644 5645 5645 5641 5640 5642 5650 5657 5663 5667 5671 5678 5684 5690 5694 5704 5715 5725 5735 5735 5736 5744 5752 5762 5769 5778 5787 5795 5800
5739 5729 5717 5706 5697 5688 5677 5667 5655 5646 5640 5637 5634 5633 5634 5634 5634 5631 5629 5629 5629 5631 5640 5646 5652 5655 5661 5669 5673 5677 5685 5698 5707 5715 5721 5727 5730 5737 5745 5753 5761 5770 5778 5786 5793
5730 5719 5708 5699 5687 5675 5664 5652 5642 5633 5629 5625 5624 5623 5622 5621 5622 5618 5617 5618 5619 5621 5628 5634 5638 5644 5651 5659 5664 5671 5682 5690 5697 5704 5709 5716 5726 5730 5738 5747 5755 5763 5769 5778 5784
5721 5711 5700 5688 5676 5664 5651 5639 5629 5622 5617 5616 5614 5611 5609 5608 5608 5604 5604 5608 5608 5611 5617 5622 5627 5633 5643 5647 5659 5662 5672 5679 5686 5694 5700 5707 5717 5721 5730 5740 5746 5752 5760 5767 5777
5713 5702 5690 5677 5666 5652 5640 5628 5617 5611 5608 5605 5601 5598 5595 5593 5595 5584 5589 5594 5597 5601 5606 5611 5615 5622 5631 5642 5646 5652 5665 5670 5678 5684 5690 5698 5709 5715 5724 5732 5738 5744 5752 5759 5766
5703 5691 5680 5667 5654 5640 5627 5615 5606 5600 5598 5593 5588 5583 5579 5578 5574 5571 5575 5578 5584 5589 5596 5600 5606 5613 5619 5629 5632 5647 5654 5661 5668 5676 5681 5690 5699 5706 5717 5722 5729 5736 5745 5752 5758
5694 5680 5667 5655 5643 5630 5617 5606 5597 5591 5586 5580 5573 5569 5569 5562 5563 5561 5564 5565 5571 5578 5585 5590 5595 5601 5609 5617 5626 5634 5641 5648 5656 5666 5672 5681 5687 5699 5708 5713 5721 5729 5735 5743 5750
5683 5669 5657 5644 5631 5618 5607 5597 5589 5579 5574 5567 5561 5558 5555 5551 5549 5548 5551 5554 5558 5566 5573 5579 5584 5592 5601 5610 5618 5625 5631 5635 5647 5655 5663 5670 5683 5691 5699 5705 5713 5721 5729 5736 5744
5673 5659 5646 5632 5620 5608 5598 5590 5580 5567 5563 5558 5550 5546 5542 5538 5536 5535 5539 5542 5544 5552 5559 5566 5576 5583 5591 5598 5605 5612 5622 5631 5641 5649 5655 5662 5675 5684 5691 5697 5704 5713 5721 5729 5738
5662 5649 5636 5622 5609 5600 5590 5581 5572 5555 5551 5548 5539 5534 5529 5524 5522 5523 5525 5528 5531 5538 5546 5554 5564 5571 5578 5582 5588 5603 5612 5621 5631 5642 5647 5656 5667 5675 5681 5688 5697 5705 5712 5721 5731
5653 5638 5624 5612 5601 5589 5581 5574 5571 5565 5540 5536 5531 5521 5514 5511 5508 5508 5511 5514 5518 5524 5533 5543 5550 5557 5569 5580 5595 5601 5608 5617 5626 5633 5639 5649 5655 5664 5671 5679 5686 5695 5704 5714 5722
5643 5631 5618 5606 5591 5579 5570 5560 5552 5546 5539 5528 5518 5511 5505 5501 5499 5497 5498 5502 5504 5511 5519 5529 5539 5557 5564 5574 5580 5587 5594 5606 5615 5623 5631 5638 5647 5654 5660 5670 5679 5687 5696 5706 5713
5637 5624 5610 5596 5582 5571 5562 5553 5544 5538 5529 5519 5510 5502 5497 5494 5492 5492 5491 5491 5495 5500 5506 5513 5531 5543 5552 5561 5572 5578 5587 5599 5611 5617 5623 5631 5636 5642 5651 5659 5668 5678 5689 5697 5706
5630 5615 5602 5590 5577 5566 5557 5547 5539 5532 5522 5514 5505 5498 5493 5489 5488 5487 5487 5488 5489 5490 5491 5498 5514 5527 5537 5550 5563 5573 5585 5590 5599 5607 5614 5622 5627 5634 5644 5652 5661 5671 5680 5689 5699
5621 5608 5595 5580 5570 5561 5553 5544 5535 5527 5519 5510 5500 5494 5490 5489 5488 5487 5486 5485 5484 5483 5485 5493 5503 5514 5526 5544 5555 5571 5577 5584 5592 5599 5606 5609 5617 5630 5635 5643 5657 5667 5675 5684 5693
5612 5599 5586 5574 5563 5556 5547 5540 5531 5525 5514 5507 5496 5492 5490 5488 5487 5485 5483 5481 5480 5479 5479 5483 5491 5502 5519 5532 5547 5558 5568 5575 5584 5590 5592 5604 5610 5617 5628 5648 5655 5661 5669 5677 5685
5604 5591 5580 5567 5560 5551 5542 5536 5530 5521 5511 5504 5496 5491 5489 5489 5487 5484 5479 5478 5479 5476 5474 5477 5484 5493 5506 5520 5535 5547 5558 5568 5573 5577 5584 5595 5600 5612 5626 5634 5644 5653 5662 5670 5676
5595 5583 5572 5562 5555 5547 5539 5533 5526 5518 5509 5499 5493 5490 5489 5489 5487 5483 5479 5479 5478 5476 5475 5478 5483 5487 5498 5513 5528 5539 5551 5563 5567 5573 5581 5588 5593 5606 5616 5625 5634 5642 5649 5656 5665
5588 5576 5566 5556 5549 5541 5535 5528 5522 5514 5505 5498 5492 5491 5490 5489 5487 5484 5482 5481 5480 5479 5480 5480 5483 5486 5495 5510 5522 5532 5541 5561 5566 5568 5577 5584 5594 5600 5610 5618 5626 5636 5643 5652 5660
5585 5572 5561 5551 5543 5536 5529 5523 5517 5510 5502 5495 5491 5490 5489 5488 5488 5485 5484 5482 5481 5481 5482 5483 5484 5486 5490 5503 5514 5527 5540 5551 5554 5560 5569 5579 5587 5593 5602 5609 5618 5629 5638 5645 5654
5577 5566 5554 5545 5538 5533 5526 5519 5512 5507 5500 5494 5490 5489 5488 5487 5486 5484 5483 5483 5481 5480 5481 5483 5484 5485 5485 5493 5510 5521 5530 5542 5550 5558 5566 5575 5582 5588 5598 5605 5613 5621 5631 5639 5647
5570 5559 5546 5539 5534 5527 5522 5517 5510 5502 5496 5491 5489 5486 5486 5486 5485 5483 5483 5482 5482 5481 5482 5482 5483 5483 5485 5494 5511 5523 5532 5539 5549 5556 5564 5571 5578 5583 5595 5602 5609 5616 5624 5634 5642
5564 5553 5542 5535 5528 5521 5516 5511 5506 5499 5493 5488 5485 5484 5484 5483 5484 5483 5482 5482 5482 5482 5481 5483 5482 5482 5483 5492 5504 5519 5530 5537 5546 5556 5560 5566 5573 5579 5590 5598 5605 5611 5618 5626 5636
5553 5543 5536 5529 5523 5516 5510 5505 5500 5494 5488 5483 5482 5481 5481 5480 5480 5482 5482 5481 5481 5481 5480 5482 5482 5482 5483 5492 5504 5514 5527 5534 5542 5552 5559 5565 5569 5575 5583 5592 5600 5607 5613 5620 5628
5546 5535 5525 5519 5515 5510 5505 5500 5496 5490 5483 5479 5477 5476 5476 5476 5477 5479 5480 5480 5479 5479 5480 5481 5482 5483 5485 5489 5503 5517 5525 5532 5540 5545 5554 5561 5565 5571 5578 5586 5595 5603 5609 5615 5621
5541 5530 5519 5511 5508 5504 5499 5495 5491 5486 5479 5476 5473 5472 5472 5472 5473 5475 5477 5478 5478 5479 5479 5480 5483 5484 5488 5491 5500 5510 5517 5524 5531 5539 5548 5555 5560 5566 5573 5580 5590 5598 5605 5611 5616
5532 5520 5510 5505 5500 5497 5494 5490 5485 5481 5475 5469 5468 5468 5468 5469 5469 5471 5474 5476 5477 5477 5478 5480 5483 5487 5489 5495 5502 5510 5516 5523 5529 5537 5547 5552 5558 5563 5569 5578 5586 5594 5601 5607 5612